Faribault, MN

1:31 PM CDT on April 22, 2018 (GMT -0500)
Faribault Municipal

Weather History for KFBL - February, 2013

Change the Weather History Date:

Friday, February 15, 2013

  Actual Average Record
Temperature  
Mean Temperature 9 °F -  
Max Temperature 15 °F 27 °F 50 °F (1954)
Min Temperature 3 °F 7 °F -14 °F (2004)
Degree Days  
Heating Degree Days 56    
Moisture  
Dew Point 3 °F    
Average Humidity 78    
Maximum Humidity 92    
Minimum Humidity 62    
Precipitation  
Precipitation 0.00 in - - ()
Sea Level Pressure  
Sea Level Pressure 30.25 in    
Wind  
Wind Speed 9 mph (West)    
Max Wind Speed 14 mph    
Max Gust Speed 18 mph    
Visibility 10 miles    
Events      
Averages and records for this station are not official NWS values.
T = Trace of Precipitation, MM = Missing Value Source: NWS Daily Summary

Daily Weather History Graph

Daily Weather History Graph

Search for Another Location

Airport or City:

Astronomy

Feb. 15, 2013 Rise Set
Actual Time 7:12 AM CST 5:42 PM CST
Civil Twilight 6:42 AM CST 6:12 PM CST
Nautical Twilight 6:08 AM CST 6:46 PM CST
Astronomical Twilight 5:35 AM CST 7:20 PM CST
Moon 9:34 AM CST (2/15) No Moon Set
Length of Visible Light 11h 29m
Length of Day
10h 30m
Waxing Crescent, 30% of the Moon is Illuminated
Feb 15
Waxing Crescent
Feb 17
First Quarter
Feb 25
Full
Mar 4
Last Quarter
Mar 11
New

Hourly Weather History & Observations

Time (CST) Temp. Windchill Dew Point Humidity Pressure Visibility Wind Dir Wind Speed Gust Speed Precip Events Conditions
12:14 AM 10.4 °F -3.3 °F 6.8 °F 85% 30.17 in 10.0 mi West 10.4 mph - N/A   Clear
12:34 AM 10.4 °F -3.3 °F 5.0 °F 79% 30.18 in 10.0 mi West 10.4 mph - N/A   Clear
12:54 AM 10.4 °F -1.5 °F 3.2 °F 73% 30.17 in 10.0 mi West 8.1 mph - N/A   Clear
1:14 AM 8.6 °F 0.1 °F 3.2 °F 79% 30.18 in 10.0 mi West 4.6 mph - N/A   Clear
1:34 AM 8.6 °F -1.3 °F 1.4 °F 73% 30.18 in 10.0 mi West 5.8 mph - N/A   Clear
1:54 AM 8.6 °F -1.3 °F 1.4 °F 73% 30.18 in 10.0 mi West 5.8 mph - N/A   Clear
2:34 AM 6.8 °F -5.9 °F 1.4 °F 79% 30.19 in 10.0 mi West 8.1 mph - N/A   Overcast
2:54 AM 6.8 °F -4.8 °F -0.4 °F 72% 30.19 in 10.0 mi West 6.9 mph - N/A   Overcast
3:14 AM 6.8 °F -4.8 °F 1.4 °F 79% 30.19 in 10.0 mi West 6.9 mph - N/A   Overcast
3:34 AM 6.8 °F -6.9 °F 1.4 °F 79% 30.20 in 10.0 mi West 9.2 mph - N/A   Overcast
3:54 AM 6.8 °F -3.5 °F 1.4 °F 79% 30.20 in 10.0 mi West 5.8 mph - N/A   Overcast
4:34 AM 3.2 °F -7.8 °F 1.4 °F 92% 30.21 in 10.0 mi WSW 5.8 mph - N/A   Scattered Clouds
4:54 AM 3.2 °F -11.3 °F 1.4 °F 92% 30.21 in 10.0 mi West 9.2 mph - N/A   Scattered Clouds
5:14 AM 3.2 °F -11.3 °F 1.4 °F 92% 30.21 in 10.0 mi West 9.2 mph - N/A   Mostly Cloudy
5:34 AM 5.0 °F -10.0 °F 1.4 °F 85% 30.21 in 10.0 mi West 10.4 mph - N/A   Overcast
5:54 AM 3.2 °F -13.1 °F 1.4 °F 92% 30.22 in 10.0 mi West 11.5 mph - N/A   Scattered Clouds
6:14 AM 3.2 °F -13.1 °F 1.4 °F 92% 30.22 in 10.0 mi West 11.5 mph - N/A   Clear
6:34 AM 3.2 °F -12.2 °F 1.4 °F 92% 30.22 in 10.0 mi West 10.4 mph - N/A   Clear
6:54 AM 3.2 °F -11.3 °F 1.4 °F 92% 30.23 in 10.0 mi West 9.2 mph - N/A   Clear
7:14 AM 3.2 °F -11.3 °F 1.4 °F 92% 30.24 in 10.0 mi West 9.2 mph - N/A   Clear
7:34 AM 3.2 °F -10.3 °F 1.4 °F 92% 30.25 in 10.0 mi West 8.1 mph - N/A   Clear
7:54 AM 3.2 °F -10.3 °F 1.4 °F 92% 30.25 in 10.0 mi WNW 8.1 mph - N/A   Clear
8:14 AM 3.2 °F -13.1 °F 1.4 °F 92% 30.26 in 10.0 mi WNW 11.5 mph - N/A   Clear
8:34 AM 6.8 °F -8.6 °F 1.4 °F 79% 30.26 in 10.0 mi WNW 11.5 mph - N/A   Clear
8:54 AM 6.8 °F -8.6 °F 1.4 °F 79% 30.27 in 10.0 mi WNW 11.5 mph - N/A   Clear
9:14 AM 6.8 °F -7.8 °F 1.4 °F 79% 30.27 in 10.0 mi WNW 10.4 mph - N/A   Clear
9:34 AM 8.6 °F -4.7 °F 1.4 °F 73% 30.28 in 10.0 mi WNW 9.2 mph - N/A   Clear
9:54 AM 8.6 °F -4.7 °F 1.4 °F 73% 30.28 in 10.0 mi WNW 9.2 mph - N/A   Clear
10:14 AM 8.6 °F -4.7 °F 3.2 °F 79% 30.28 in 10.0 mi WNW 9.2 mph - N/A   Clear
10:34 AM 10.4 °F -2.4 °F 3.2 °F 73% 30.28 in 10.0 mi NW 9.2 mph - N/A   Clear
10:53 AM 10.4 °F -2.4 °F 3.2 °F 73% 30.28 in 10.0 mi WNW 9.2 mph - N/A   Clear
11:14 AM 10.4 °F -2.4 °F 3.2 °F 73% 30.28 in 10.0 mi NW 9.2 mph - N/A   Clear
11:53 AM 12.2 °F -1.0 °F 3.2 °F 67% 30.28 in 10.0 mi NW 10.4 mph - N/A   Clear
12:14 PM 12.2 °F -1.8 °F 5.0 °F 73% 30.27 in 10.0 mi WNW 11.5 mph - N/A   Clear
12:33 PM 12.2 °F -3.1 °F 5.0 °F 73% 30.27 in 10.0 mi WNW 13.8 mph 18.4 mph N/A   Clear
12:54 PM 14.0 °F 1.2 °F 5.0 °F 67% 30.27 in 10.0 mi WNW 10.4 mph - N/A   Clear
1:14 PM 14.0 °F -0.2 °F 5.0 °F 67% 30.27 in 10.0 mi West 12.7 mph - N/A   Clear
1:33 PM 14.0 °F 2.0 °F 5.0 °F 67% 30.27 in 10.0 mi WNW 9.2 mph 16.1 mph N/A   Clear
1:54 PM 14.0 °F 2.0 °F 6.8 °F 73% 30.26 in 10.0 mi WNW 9.2 mph - N/A   Clear
2:14 PM 14.0 °F -0.2 °F 5.0 °F 67% 30.27 in 10.0 mi West 12.7 mph - N/A   Clear
2:34 PM 15.8 °F 3.4 °F 5.0 °F 62% 30.27 in 10.0 mi NW 10.4 mph - N/A   Clear
2:54 PM 15.8 °F 3.4 °F 5.0 °F 62% 30.27 in 10.0 mi NW 10.4 mph 17.3 mph N/A   Clear
3:14 PM 15.8 °F 4.2 °F 6.8 °F 68% 30.27 in 10.0 mi West 9.2 mph - N/A   Clear
3:33 PM 15.8 °F 1.4 °F 5.0 °F 62% 30.27 in 10.0 mi WNW 13.8 mph - N/A   Clear
3:54 PM 14.0 °F -0.2 °F 5.0 °F 67% 30.28 in 10.0 mi WNW 12.7 mph - N/A   Clear
4:13 PM 14.0 °F 2.0 °F 5.0 °F 67% 30.27 in 10.0 mi WNW 9.2 mph - N/A   Clear
4:34 PM 14.0 °F 1.2 °F 5.0 °F 67% 30.28 in 10.0 mi WNW 10.4 mph - N/A   Clear
4:54 PM 14.0 °F 1.2 °F 5.0 °F 67% 30.28 in 10.0 mi WNW 10.4 mph - N/A   Clear
5:13 PM 12.2 °F -3.1 °F 5.0 °F 73% 30.28 in 10.0 mi WNW 13.8 mph - N/A   Clear
5:34 PM 12.2 °F -1.8 °F 5.0 °F 73% 30.28 in 10.0 mi WNW 11.5 mph 17.3 mph N/A   Clear
5:53 PM 10.4 °F -1.5 °F 3.2 °F 73% 30.28 in 10.0 mi West 8.1 mph - N/A   Clear
6:14 PM 10.4 °F -0.4 °F 3.2 °F 73% 30.28 in 10.0 mi West 6.9 mph - N/A   Clear
6:34 PM 10.4 °F -2.4 °F 3.2 °F 73% 30.28 in 10.0 mi West 9.2 mph - N/A   Clear
6:54 PM 10.4 °F 0.8 °F 3.2 °F 73% 30.28 in 10.0 mi West 5.8 mph - N/A   Clear
7:14 PM 10.4 °F -0.4 °F 3.2 °F 73% 30.28 in 10.0 mi West 6.9 mph - N/A   Clear
7:33 PM 8.6 °F -1.3 °F 3.2 °F 79% 30.28 in 10.0 mi West 5.8 mph - N/A   Clear
7:54 PM 8.6 °F -1.3 °F 3.2 °F 79% 30.28 in 10.0 mi WSW 5.8 mph - N/A   Clear
8:14 PM 6.8 °F -2.0 °F 3.2 °F 85% 30.28 in 10.0 mi WSW 4.6 mph - N/A   Clear
8:34 PM 6.8 °F -2.0 °F 3.2 °F 85% 30.27 in 10.0 mi WSW 4.6 mph - N/A   Clear
8:54 PM 6.8 °F -3.5 °F 3.2 °F 85% 30.27 in 10.0 mi WSW 5.8 mph - N/A   Clear
9:14 PM 6.8 °F -3.5 °F 1.4 °F 79% 30.27 in 10.0 mi WSW 5.8 mph - N/A   Clear
9:34 PM 5.0 °F -5.6 °F 1.4 °F 85% 30.27 in 10.0 mi WSW 5.8 mph - N/A   Clear
9:54 PM 5.0 °F -5.6 °F 1.4 °F 85% 30.26 in 10.0 mi WSW 5.8 mph - N/A   Clear
10:13 PM 5.0 °F -6.9 °F 1.4 °F 85% 30.26 in 10.0 mi West 6.9 mph - N/A   Clear
10:34 PM 5.0 °F -5.6 °F 1.4 °F 85% 30.26 in 10.0 mi WSW 5.8 mph - N/A   Clear
10:54 PM 5.0 °F -5.6 °F 1.4 °F 85% 30.26 in 10.0 mi West 5.8 mph - N/A   Clear
11:14 PM 5.0 °F -6.9 °F 1.4 °F 85% 30.25 in 10.0 mi West 6.9 mph - N/A   Clear
11:34 PM 5.0 °F -8.1 °F 1.4 °F 85% 30.25 in 10.0 mi West 8.1 mph - N/A   Clear
11:54 PM 3.2 °F -10.3 °F 1.4 °F 92% 30.24 in 10.0 mi West 8.1 mph - N/A   Clear